Location: Borz?cin
(51.1714°N, 19.6030°E)
Time: 07:17:27
(UTC+00:00)

Cosmos 1680 Rocket - Pass Details

Date: 19 May 2025
Orbit: 757 x 776 km, 74.1° (Epoch: 16 June)

Event Time Altitude Azimuth Distance (km) Brightness Sun altitude
Exits shadow 22:39:26 34° 160° (SSE) 1,234 4.1 -18.8°
Maximum altitude 22:41:17 51° 107° (ESE) 962 3.9 -18.8°
Drops below altitude 10° 22:46:20 10° 33° (NNE) 2,304 6.8 -18.8°
Sets 22:48:45 0° 28° (NNE) 3,232 7.9 -18.8°
